Regional Weather Roundup
Issued by NWS Huntsville, AL

Home | Current Version | Previous Version | Text Only | Print | Product List | Glossary On
Versions: 1 2 3 4 5 6 7 8 9 10 11 12 13 14 15 16 17 18 19 20 21 22 23 24 25 26 27 28
000
ASUS44 KHUN 100210
RWRHUN

WEATHER ROUNDUP FOR THE TENNESSEE VALLEY
NATIONAL WEATHER SERVICE HUNTSVILLE AL
800 PM CST FRI DEC 09 2022

ALZ001>004-100300-
NORTHWEST ALABAMA

CITY           SKY/WX    TMP DP  RH WIND       PRES   REMARKS
BANKHEAD NF      N/A     60  59  96 NW2         N/A
SHOALS AIRPORT MOCLDY    58  54  86 NW3       30.16R
$$

ALZ005>007-016-100300-
NORTH CENTRAL ALABAMA

CITY           SKY/WX    TMP DP  RH WIND       PRES   REMARKS
DECATUR AP     CLOUDY    60  58  92 NW6       30.15R
HUNTSVILLE AP  CLOUDY    62  60  93 NW6       30.14R
HUN NWS/UAH      N/A     62  59  89 NW6         N/A
MERIDIANVILLE  CLOUDY    61  58  91 N7        30.15R
VINEMONT AP    CLOUDY    61  61 100 VRB6      30.16R
$$

ALZ008>010-100300-
NORTHEAST ALABAMA

CITY           SKY/WX    TMP DP  RH WIND       PRES   REMARKS
ALBERTVILLE    CLOUDY    61  59  94 NW5       30.13S
FORT PAYNE     CLOUDY    62  61  99 CALM      30.12R FOG
SCOTTSBORO AP  CLOUDY    63  63 100 CALM      30.13S FOG
$$

TNZ076-096-097-100300-
SOUTHEASTERN MIDDLE TENNESSEE

CITY           SKY/WX    TMP DP  RH WIND       PRES   REMARKS
FAYETTEVILLE   CLOUDY    57  57 100 N5        30.16R
TULLAHOMA      MOCLDY    55  55 100 NW5       30.14R
WINCHESTER     CLOUDY    59  59 100 CALM      30.14R
$$

...SURROUNDING SITES...

CITY           SKY/WX    TMP DP  RH WIND       PRES   REMARKS
ATLANTA        CLOUDY    58  57  97 E10       30.13R
ANNISTON       CLOUDY    65  63  93 SW6       30.12R
BIRMINGHAM     CLOUDY    65  62  90 NW7       30.16R
CHATTANOOGA    PTCLDY    58  57  97 CALM      30.12R FOG
CORINTH        MOCLDY    55  52  88 CALM      30.16S
DALTON         CLOUDY    59  58  96 CALM      30.13R FOG
GADSDEN        CLOUDY    65  64  97 NW3       30.13R
GOLDEN TRNGL   CLOUDY    64  61  88 N6        30.15R
HALEYVILLE     CLOUDY    60  60 100 N5        30.18R
JACKSON TN     MOCLDY    49  48  97 SW3       30.17R
MEMPHIS        MOCLDY    50  49  96 S3        30.16R
NASHVILLE      MOCLDY    54  51  90 VRB3      30.16R
OXFORD MS      CLOUDY    57  55  94 N3        30.18S
ROME           CLOUDY    60  58  92 S6        30.11R
SAVANNAH       FOG       54  52  94 CALM      30.15R VSB 3/4
SELMER         MOCLDY    50  50 100 CALM      30.16R FOG
TUPELO         CLOUDY    62  56  80 N5        30.16R
TUSCALOOSA     CLOUDY    67  64  90 W3        30.14R
$$




USA.gov is the U.S. government's official web portal to all federal, state and local government web resources and services.